World > North America > United States > New York > West Milton  

West Milton, NY Hourly Weather Updates

Feedback E-mail the Weather

Quick Clicks

West Milton, NY Weather Maps

°F °C°F °C
West Milton Weather Map
UTC Time: 5/23/2024, 05:08
Your Time:

West Milton, NY Regional Weather

Expires:202405230500;;699062
ASUS41 KALY 230410
RWRALY

NEW YORK STATE HOURLY WEATHER ROUNDUP
NATIONAL WEATHER SERVICE ALBANY NY
1200 AM EDT THU MAY 23 2024

NOTE: "FAIR" INDICATES FEW OR NO CLOUDS BELOW 12,000 FEET WITH NO
SIGNIFICANT WEATHER AND/OR NO OBSTRUCTIONS TO VISIBILITY.


NYZ032-033-038>043-046>054-057>066-NYZ062>081-082-084-230500-
EAST

  
CITY           SKY/WX    TMP DP  RH WIND       PRES   REMARKS
ALBANY         MOCLDY    76  62  62 S7        29.81R                  
GLENS FALLS    PTCLDY    68  64  87 CALM      29.79R                  
POUGHKEEPSIE   LGT RAIN  76  62  62 SW7       29.84S                  
NEWBURGH       LGT RAIN  73  63  68 W14       29.87S                  
MONTGOMERY     MOCLDY    67  63  87 S3        29.86F                  
WHITE PLAINS   PTCLDY    66  60  81 CALM      29.89S                  
ISLIP          PTCLDY    65  60  84 SW14G21   29.90F                  
NEW YORK CITY  PTCLDY    72  58  61 S8        29.87F                  
CENTRAL PARK   PTCLDY    74  61  63 SW7       29.91F                  
$$


SKY/WX - Weather  TMP - Temperature  DP - Dew Point  RH - Humidity
WIND - Wind Direction/Speed PRES - Barometric Pressure VSB - Visibility
WCI - Wind Chill Index E13G22 Wind - East Wind 13 mph/Gusts of 22 mph

Trending Headlines

Trending Entertainment Headlines

West Milton Radar Loop

Use the map search tool if you want to place a location marker on the radar map...

West Milton Quick Facts

National Two Day Weather Forecast


E-mail the West Milton Weather Forecast

Voice your opinion or tell us about page issues...